EW7633 Weather Reports


Display with metric or nautical units.
time (UTC)temp
F
wind
direction
speed
MPH
gust
MPH
rain 1hr
in
rain 24hr
in
rain mn
in
humidity
%
barometer
mb
20260906184527 81 26 2.0 3.0 0.00 0.00 0.00 75 1014.2
20260906183027 81 58 0.0 5.0 0.00 0.00 0.00 75 1014.4
20260906181529 82 44 1.0 4.0 0.00 0.00 0.00 75 1014.5
20260906180024 82 101 1.0 2.0 0.00 0.00 0.00 73 1014.6
20260906174523 82 244 0.0 3.0 0.00 0.00 0.00 74 1014.8
20260906173023 81 109 0.0 3.0 0.00 0.00 0.00 76 1015.0
20260906171519 81 188 0.0 3.0 0.00 0.00 0.00 76 1015.1
20260906170042 80 109 0.0 3.0 0.00 0.00 0.00 77 1015.1
20260906164519 80 300 0.0 2.0 0.00 0.00 0.00 77 1015.3
20260906163013 80 35 2.0 4.0 0.00 0.00 0.00 77 1015.4
20260906161512 80 9 0.0 3.0 0.00 0.00 0.00 78 1015.5
20260906160011 80 39 2.0 6.0 0.00 0.00 0.00 79 1015.1
20260906154518 80 24 3.0 5.0 0.00 0.00 0.00 79 1015.4
20260906153016 80 327 1.0 4.0 0.00 0.00 0.00 79 1015.3
20260906151509 79 19 0.0 3.0 0.00 0.00 0.00 77 1015.3
20260906150007 78 251 0.0 2.0 0.00 0.00 0.00 82 1015.3
20260906144506 77 240 0.0 1.0 0.00 0.00 0.00 82 1015.4
20260906143009 77 355 0.0 2.0 0.00 0.00 0.00 83 1015.2
20260906141503 76 5 0.0 2.0 0.00 0.00 0.00 83 1015.3
20260906140008 76 299 0.0 2.0 0.00 0.00 0.00 83 1015.5
20260906134502 75 238 1.0 3.0 0.00 0.00 0.00 83 1015.5
20260906133200 75 225 1.0 3.0 0.00 0.00 0.00 85 1015.3
20260906131557 74 123 0.0 2.0 0.00 0.00 0.00 84 1014.6
20260906130056 74 120 0.0 1.0 0.00 0.00 0.00 83 1014.5
20260906124555 74 88 0.0 2.0 0.00 0.00 0.00 83 1014.4
20260906123137 74 92 0.0 0.0 0.00 0.00 0.00 83 1014.2
20260906121550 74 159 0.0 0.0 0.00 0.00 0.00 84 1013.9
20260906120049 74 159 0.0 1.0 0.00 0.00 0.00 84 1013.8
20260906114546 74 121 0.0 2.0 0.00 0.00 0.00 83 1013.7
20260906113046 74 129 0.0 2.0 0.00 0.00 0.00 83 1013.7
20260906111545 75 113 0.0 2.0 0.00 0.00 0.00 82 1013.5
20260906110044 75 135 0.0 1.0 0.00 0.00 0.00 82 1013.5
20260906104543 75 169 0.0 3.0 0.00 0.00 0.00 82 1013.5
20260906103048 75 115 0.0 1.0 0.00 0.00 0.00 83 1013.6
20260906101544 75 156 0.0 0.0 0.00 0.00 0.00 83 1013.5
20260906100057 75 140 0.0 2.0 0.00 0.00 0.00 83 1013.4
20260906094542 75 118 0.0 2.0 0.00 0.00 0.00 83 1013.4
20260906093046 75 126 0.0 0.0 0.00 0.00 0.00 83 1013.4
20260906091556 76 126 0.0 0.0 0.00 0.00 0.00 83 1013.4
20260906090040 76 142 0.0 1.0 0.00 0.00 0.00 83 1013.5
20260906084540 76 139 0.0 2.0 0.00 0.00 0.00 83 1013.5
20260906083039 75 78 0.0 0.0 0.00 0.00 0.00 86 1013.6
20260906081541 75 78 0.0 1.0 0.00 0.00 0.00 87 1013.5
20260906080041 75 78 0.0 2.0 0.00 0.00 0.00 88 1013.4
20260906074545 75 78 0.0 0.0 0.00 0.00 0.00 88 1013.4
20260906073040 75 78 0.0 0.0 0.00 0.00 0.00 87 1013.3
20260906071533 76 78 0.0 2.0 0.00 0.00 0.00 86 1013.2
20260906070101 76 78 0.0 0.0 0.00 0.00 0.00 86 1013.2
20260906064533 76 78 0.0 2.0 0.00 0.00 0.00 86 1013.3
20260906063030 76 78 0.0 0.0 0.00 0.00 0.00 84 1013.4
20260906061527 77 78 0.0 2.0 0.00 0.00 0.00 83 1013.4
20260906060023 77 89 0.0 3.0 0.00 0.00 0.00 83 1013.5
20260906054522 78 88 1.0 3.0 0.00 0.00 0.00 83 1013.5
20260906053020 78 60 1.0 3.0 0.00 0.00 0.00 82 1013.6
20260906051518 78 44 1.0 3.0 0.00 0.00 0.00 81 1013.4
20260906050015 79 52 1.0 2.0 0.00 0.00 0.00 79 1013.4
20260906044513 78 80 0.0 2.0 0.00 0.00 0.00 79 1013.3
20260906043020 79 100 0.0 2.0 0.00 0.00 0.00 78 1013.2
20260906041523 80 81 0.0 2.0 0.00 0.00 0.00 75 1013.2
20260906040022 81 68 1.0 2.0 0.00 0.00 0.00 74 1013.2
20260906034509 81 70 1.0 2.0 0.00 0.00 0.00 74 1013.2
20260906033019 81 51 1.0 2.0 0.00 0.00 0.00 73 1013.2
20260906031507 82 57 1.0 2.0 0.00 0.00 0.00 73 1013.1
20260906030017 82 50 0.0 2.0 0.00 0.00 0.00 73 1012.9
20260906024506 82 84 0.0 2.0 0.00 0.00 0.00 74 1012.6
20260906023006 82 84 0.0 0.0 0.00 0.00 0.00 74 1012.4
20260906021504 83 84 0.0 2.0 0.00 0.00 0.00 73 1012.0
20260906020009 84 74 1.0 2.0 0.00 0.00 0.00 69 1011.8
20260906014506 85 85 1.0 2.0 0.00 0.00 0.00 68 1011.6
20260906013002 86 173 0.0 0.0 0.00 0.00 0.00 67 1011.4
20260906011501 86 173 0.0 2.0 0.00 0.00 0.00 65 1011.2
20260906010001 87 173 0.0 2.0 0.00 0.00 0.00 64 1011.2
20260906004501 89 173 0.0 2.0 0.00 0.00 0.00 63 1011.2
20260906003105 89 173 0.0 2.0 0.00 0.00 0.00 61 1011.1
20260906001601 90 171 0.0 5.0 0.00 0.00 0.00 60 1011.1
20260906001505 90 175 1.0 5.0 0.00 0.00 0.00 60 1011.1
20260906000004 91 179 2.0 5.0 0.00 0.00 0.00 58 1011.1
20260905234559 92 146 1.0 4.0 0.00 0.00 0.00 56 1011.2
20260905233059 92 206 4.0 9.0 0.00 0.00 0.00 54 1011.0
20260905231559 93 193 4.0 10.0 0.00 0.00 0.00 53 1010.8
20260905230058 94 198 2.0 9.0 0.00 0.00 0.00 51 1010.9
20260905224557 94 195 4.0 11.0 0.00 0.00 0.00 52 1010.8
20260905223055 94 162 5.0 10.0 0.00 0.00 0.00 55 1010.9
20260905221553 94 190 4.0 10.0 0.00 0.00 0.00 54 1010.8
20260905220052 93 167 5.0 11.0 0.00 0.00 0.00 57 1010.7
20260905214548 92 132 4.0 10.0 0.00 0.00 0.00 64 1010.8
20260905213044 91 122 5.0 10.0 0.00 0.00 0.00 65 1011.1
20260905211550 91 109 5.0 11.0 0.00 0.00 0.00 65 1011.3
20260905211508 91 65 6.0 11.0 0.00 0.00 0.00 65 1011.4
20260905210047 91 67 5.0 12.0 0.00 0.00 0.00 65 1011.5
20260905204544 91 71 6.0 13.0 0.00 0.00 0.00 64 1011.9
20260905203100 90 98 5.0 13.0 0.00 0.00 0.00 65 1012.1
20260905201536 90 98 6.0 11.0 0.00 0.00 0.00 65 1012.5
20260905200038 90 95 5.0 11.0 0.00 0.00 0.00 65 1012.8
20260905194531 89 115 3.0 13.0 0.00 0.00 0.00 66 1013.0
20260905193030 89 105 7.0 14.0 0.00 0.00 0.00 66 1013.4
20260905191529 89 25 7.0 15.0 0.00 0.00 0.00 64 1013.8
20260905190129 89 35 7.0 15.0 0.00 0.00 0.00 64 1014.0